Theta_e
335 336 338 339 337 334 336 337 338 340 342 341 341 341 340 343 344 342 342 342 342 342 341 340 340 341 340 341 340 341 342 341 339 339 337 337 340 339 336 336 333 337 334 332 334 339 339 340 338 337 338 338 338 338 338 338 338 336 338 339 340 340 339
333 335 337 339 336 334 336 338 337 341 341 341 341 341 342 342 342 341 342 343 343 341 340 340 339 339 340 341 342 340 340 338 338 339 336 339 339 339 338 335 336 332 334 335 334 337 338 336 336 336 337 337 338 337 335 336 336 335 336 337 337 336 336
332 337 336 336 336 334 334 336 338 339 338 338 338 339 341 341 341 342 341 341 341 339 339 338 338 338 338 340 338 338 338 336 335 331 330 329 330 331 335 337 334 330 332 332 335 335 335 336 337 337 335 334 333 335 334 334 334 333 334 336 335 334 334
335 335 336 337 337 337 337 338 338 337 335 336 339 340 341 342 341 342 341 340 337 337 337 336 337 337 338 337 337 335 335 333 333 330 330 332 330 331 334 335 332 333 330 333 334 334 335 335 334 337 336 333 333 332 333 332 331 333 331 333 332 332 333
334 335 336 336 336 337 338 338 341 335 334 337 340 341 341 341 341 340 339 337 338 338 337 337 336 337 338 337 335 335 333 331 331 331 332 333 332 332 333 329 330 330 333 334 334 334 333 333 332 332 332 333 330 331 330 329 329 331 330 330 330 330 327
330 331 332 336 337 338 338 338 336 336 336 336 337 338 339 340 341 340 340 339 338 339 338 336 336 337 336 336 335 333 334 334 334 334 333 331 329 325 327 328 331 332 330 332 332 332 332 331 331 330 328 328 327 327 327 326 325 327 328 326 328 327 325
331 332 336 337 338 337 338 338 336 336 337 338 340 340 339 339 339 339 339 336 334 333 332 333 333 333 334 337 332 332 332 331 331 330 332 330 327 325 326 330 331 330 331 333 333 331 330 330 331 328 326 328 327 326 326 326 325 323 325 325 326 326 326
330 333 336 337 339 337 338 337 337 338 339 340 339 338 337 339 340 339 335 333 332 331 330 330 330 332 334 331 333 329 328 330 331 330 330 329 330 327 327 325 328 329 331 328 331 331 328 327 327 327 324 326 325 326 324 325 324 322 322 321 323 323 322
335 337 336 336 337 337 337 337 338 338 338 338 338 337 339 339 338 335 334 333 333 331 330 328 329 330 333 331 330 326 328 329 328 326 326 328 329 328 326 324 326 329 328 327 327 328 326 326 324 329 327 327 327 325 322 323 320 320 319 320 321 321 321
337 336 336 336 336 337 337 338 338 336 336 336 337 338 338 339 339 337 334 333 330 331 330 330 328 329 331 329 325 324 324 324 326 329 327 327 327 327 327 327 326 327 328 329 328 327 326 327 329 330 328 325 324 322 322 320 318 316 316 316 317 319 320
336 336 336 335 336 336 337 335 335 335 335 335 336 336 338 338 337 336 333 329 328 328 328 328 329 326 325 329 325 325 326 324 327 328 327 326 326 326 325 326 324 325 324 326 324 327 326 325 327 328 326 322 321 319 318 316 314 314 313 313 315 318 319
334 335 334 335 336 336 335 334 335 333 332 333 335 336 337 337 335 332 330 329 329 328 327 326 326 324 324 324 324 327 326 326 326 326 326 325 324 324 324 324 324 324 324 324 325 325 322 323 323 322 322 319 320 316 313 313 311 313 313 313 314 316 318
335 335 335 334 335 334 333 331 332 333 333 334 335 336 338 334 331 330 332 330 327 327 327 326 326 329 325 323 323 325 324 323 323 324 324 323 323 323 324 323 323 323 323 324 324 322 320 320 320 322 318 319 316 313 312 311 311 312 312 312 314 316 317
335 334 335 335 334 332 330 329 330 331 332 332 334 336 334 334 331 332 331 328 328 326 327 327 326 326 326 326 322 324 322 323 322 323 325 325 325 323 322 322 322 322 324 324 323 320 318 319 316 318 320 318 316 315 313 312 310 310 312 313 314 316 317
333 332 333 332 332 331 331 331 332 332 332 333 334 334 333 332 331 332 329 328 327 325 326 328 327 326 322 325 325 324 325 326 324 323 323 325 324 323 322 321 321 323 323 323 321 319 320 320 317 316 316 317 317 316 313 311 309 311 311 312 313 315 317
332 332 331 331 331 332 332 332 333 333 332 332 332 332 330 331 331 329 327 325 326 327 327 329 327 326 325 325 324 326 326 326 326 325 323 322 322 322 322 321 322 321 321 321 320 320 320 320 319 317 315 315 316 315 312 310 309 314 316 315 315 315 316
332 331 331 331 332 332 332 332 333 333 333 332 332 330 331 330 328 326 325 325 326 327 326 328 328 325 322 324 325 327 327 326 325 326 324 323 322 322 322 322 321 322 321 320 319 320 320 320 318 317 315 314 314 313 311 310 310 313 313 314 316 316 316
331 331 330 331 332 332 331 332 330 332 331 332 331 330 329 328 326 325 324 326 323 326 327 326 326 325 325 325 326 326 326 324 325 325 324 324 322 322 322 322 321 321 320 319 318 319 319 318 318 318 317 316 317 315 313 310 314 313 313 314 315 317 317
331 331 331 331 331 331 331 330 331 332 332 330 330 328 326 325 324 324 326 323 323 326 323 324 325 325 324 325 325 326 325 325 324 324 323 323 322 322 322 322 320 319 319 319 318 320 320 320 318 318 318 317 317 316 312 309 313 313 313 313 315 317 319
331 331 332 332 331 331 332 332 333 331 330 328 326 324 325 326 325 324 324 326 327 324 325 325 325 324 323 323 323 326 325 324 324 323 324 324 324 322 321 321 321 319 319 320 321 321 319 317 318 318 318 317 316 316 312 310 313 313 314 313 314 316 320
331 331 332 331 330 331 331 332 331 329 327 325 325 326 325 325 324 325 324 324 324 323 323 323 323 322 324 321 323 324 324 324 323 323 324 323 322 322 321 320 321 321 320 319 318 319 320 319 317 318 318 318 317 315 313 310 313 313 313 314 314 316 319
331 332 331 331 331 332 331 329 328 327 326 328 324 324 325 324 324 326 324 325 323 324 323 323 323 322 322 324 323 323 324 323 322 322 324 323 322 320 321 322 322 320 321 320 320 317 319 320 319 318 318 319 318 316 314 311 312 313 312 313 313 315 315
333 332 332 332 332 331 331 330 328 328 327 325 324 324 324 325 325 324 322 322 321 322 321 322 321 320 322 324 323 324 323 323 322 322 321 321 322 321 320 321 322 322 321 320 319 318 317 318 318 320 318 318 318 316 317 314 312 312 311 310 313 314 313
334 333 332 331 331 329 328 327 326 326 325 324 324 325 325 324 326 324 322 321 322 324 321 321 320 319 321 322 323 323 324 323 323 321 321 321 320 319 320 321 322 321 321 322 320 319 318 320 320 320 320 317 317 317 316 315 312 313 310 309 311 312 312
333 331 331 330 328 326 325 325 324 324 324 323 322 323 324 325 324 323 320 320 321 322 320 320 320 319 322 322 323 325 324 323 322 322 322 320 320 320 320 320 321 321 323 323 322 321 322 318 319 318 320 320 319 317 317 318 315 312 310 310 310 311 313
330 330 328 327 326 325 326 327 323 322 321 320 320 321 323 323 325 321 320 321 320 319 320 320 321 322 324 323 322 322 324 324 323 322 322 321 322 323 321 323 322 322 322 323 321 319 320 321 318 319 319 320 321 317 319 318 319 314 308 311 310 311 313
329 328 326 324 323 328 325 324 322 319 319 320 321 322 323 322 322 322 322 321 320 319 320 322 323 323 322 323 323 322 322 323 322 323 322 322 322 324 323 324 323 323 321 321 320 321 321 318 321 319 319 321 320 320 320 317 319 319 313 310 308 310 311
325 322 323 325 327 324 319 317 319 319 319 320 320 320 324 323 321 322 322 320 319 320 323 322 323 325 324 323 322 321 322 323 323 322 321 322 323 323 322 323 324 321 321 320 321 318 320 317 317 323 320 320 320 320 320 319 318 318 315 312 311 310 309
321 321 321 320 319 319 319 318 318 318 318 319 320 321 323 323 322 322 322 319 320 322 322 323 322 323 323 323 320 320 321 322 320 322 320 319 321 321 319 322 322 322 322 320 320 320 319 319 320 319 321 319 319 321 321 322 320 318 319 317 311 311 310
322 321 320 319 319 319 319 318 319 319 320 321 322 323 324 323 322 322 321 319 323 323 321 324 325 322 322 320 320 318 321 321 321 322 321 321 322 323 319 322 322 320 320 322 321 318 318 319 319 318 317 318 320 319 322 320 325 320 318 318 314 311 310
321 319 318 317 317 319 319 318 318 320 320 321 322 325 326 324 323 321 320 321 325 322 321 320 321 321 319 319 318 321 320 322 322 320 321 320 320 320 321 319 321 321 323 321 320 320 318 319 319 319 318 317 317 320 321 321 322 323 319 316 318 313 310
319 319 319 318 319 319 318 318 318 317 317 321 323 324 325 324 323 321 320 324 323 322 322 319 320 320 317 319 320 319 321 319 322 321 322 323 324 322 324 320 322 323 322 323 319 319 317 318 317 317 316 319 318 319 319 319 320 319 319 316 315 316 315
320 319 318 318 319 321 319 319 319 319 319 317 321 322 323 323 324 323 324 326 320 320 322 320 321 320 320 319 320 321 322 321 321 323 322 322 324 322 323 325 322 319 322 320 320 319 319 317 316 316 316 317 318 319 319 318 321 319 321 318 317 314 312
319 319 320 320 320 321 319 319 318 318 318 321 322 323 323 323 323 323 323 321 319 320 321 319 318 316 318 314 318 320 320 320 318 318 322 322 322 320 320 321 318 320 323 322 319 320 318 319 319 317 317 317 318 319 319 318 317 317 316 315 312 311 311
320 319 320 320 321 321 321 321 319 319 321 322 323 323 323 324 324 322 323 322 322 321 321 318 321 317 316 318 321 320 319 319 319 321 322 321 321 323 325 321 318 318 320 321 329 324 320 316 317 319 318 316 317 317 316 314 315 314 312 318 310 313 309
319 319 319 320 321 320 319 320 320 320 320 323 323 323 323 322 324 323 322 323 322 322 320 321 318 320 322 321 322 317 317 320 318 318 320 318 323 320 321 320 319 321 321 322 323 320 312 310 317 319 321 319 320 319 319 316 318 309 300 299 299 299 299
319 319 319 319 319 319 319 317 320 321 320 322 323 323 323 322 321 323 321 319 324 322 322 320 321 320 318 319 316 317 318 317 318 321 322 322 321 320 319 318 321 304 307 314 323 316 305 300 301 305 309 316 314 316 315 313 306 298 297 297 297 296 295
320 320 320 319 317 319 318 319 322 322 321 323 323 323 323 321 321 324 322 323 324 323 323 321 322 321 322 320 322 323 324 322 321 321 321 325 323 321 321 319 317 322 307 302 307 308 305 301 299 298 300 303 307 313 314 311 302 297 296 297 297 296 295
Wind_Speed
8 6 5 4 9 8 6 7 7 6 6 8 9 10 10 9 8 8 9 8 8 8 7 7 7 6 7 6 7 6 6 5 6 5 6 6 5 5 6 5 6 5 6 6 6 5 5 8 8 9 8 7 7 8 8 7 8 9 8 8 7 7 9
9 6 7 7 11 8 7 6 5 1 6 7 8 9 10 9 8 9 8 8 8 8 7 7 7 7 6 5 6 7 7 7 7 7 6 6 5 5 4 5 6 6 6 5 5 5 6 9 9 8 7 6 7 8 8 8 9 9 8 8 7 7 8
6 7 8 8 8 7 8 4 5 5 7 8 9 9 10 10 9 9 8 8 8 7 7 7 7 6 6 6 7 7 7 7 8 9 9 8 9 9 5 4 5 6 7 6 6 8 8 7 6 6 7 7 8 8 8 8 8 9 9 8 7 7 8
7 10 7 7 7 6 6 6 7 9 10 10 11 11 11 10 9 7 8 8 7 7 7 6 6 6 6 6 6 6 7 8 8 8 8 8 8 8 5 4 5 5 6 8 9 8 8 8 8 6 7 7 8 8 8 8 8 9 9 9 7 8 7
11 11 3 5 7 7 7 6 3 9 9 13 11 11 10 9 8 8 7 6 5 6 5 5 5 5 5 5 5 5 6 9 8 8 6 5 6 6 6 6 6 6 5 8 9 8 8 8 9 8 7 7 8 7 8 9 9 8 7 9 8 9 7
8 4 8 7 8 8 6 5 4 9 13 12 11 10 9 8 7 7 6 5 4 4 4 5 7 6 5 5 5 5 5 6 5 5 5 6 7 8 8 10 7 7 9 10 8 7 7 8 8 10 10 9 10 10 11 12 11 10 9 7 8 8 10
8 7 5 8 8 8 7 6 8 11 11 11 10 9 7 7 6 5 3 4 6 5 3 8 8 7 5 4 4 5 5 5 5 6 5 6 10 8 10 7 7 7 8 6 5 6 7 8 8 9 9 9 10 11 9 9 9 9 9 9 9 9 9
8 7 7 8 9 9 8 9 12 13 11 10 9 7 7 6 5 3 3 4 4 5 6 7 7 7 4 5 4 7 7 6 6 6 6 8 7 8 10 9 7 8 6 9 6 7 8 10 9 9 9 9 9 9 10 9 11 13 11 12 12 12 10
6 7 10 9 10 10 10 11 11 12 12 10 9 7 5 4 3 3 2 3 4 8 8 7 5 4 3 3 5 8 7 7 6 7 8 8 7 7 8 9 8 8 10 10 9 8 9 8 8 5 7 7 7 8 9 10 11 10 11 10 11 11 12
8 10 11 10 10 10 11 12 11 10 10 8 6 4 4 2 3 2 1 2 7 6 6 7 7 5 4 4 8 8 8 8 7 8 7 7 7 9 8 7 7 7 7 7 7 8 7 7 6 4 5 6 8 10 10 11 11 11 10 11 10 11 11
10 10 10 11 11 11 12 10 9 9 9 6 4 3 3 2 3 1 3 8 9 10 10 8 7 7 7 6 8 6 6 8 8 7 8 8 7 9 9 8 9 8 10 8 9 8 7 7 8 6 5 7 10 10 11 11 12 12 12 12 11 11 11
11 10 10 10 11 11 11 9 8 8 6 3 3 2 2 3 2 5 9 9 8 10 8 8 8 7 7 6 6 6 6 6 6 8 8 9 9 8 8 8 8 8 8 8 8 8 8 7 7 6 7 7 9 12 12 10 11 10 11 11 11 11 11
10 10 10 11 11 11 10 9 7 8 5 3 2 1 2 5 7 6 6 10 10 8 7 7 5 3 5 7 8 7 7 7 8 7 8 8 8 8 7 8 8 9 8 7 7 8 7 7 8 6 8 9 13 12 11 10 10 9 10 10 10 10 11
12 11 10 9 10 9 7 7 7 8 5 4 3 3 5 6 6 6 6 8 7 7 5 4 5 5 5 6 6 6 6 5 7 7 6 6 6 6 7 7 7 7 6 6 7 7 9 8 9 7 6 10 9 8 8 9 10 10 10 10 9 9 10
12 11 10 9 9 9 9 8 8 8 9 7 5 5 6 6 6 6 8 7 6 5 4 3 4 6 7 5 4 4 5 4 5 6 6 5 5 6 7 6 5 5 5 6 5 5 6 7 9 9 8 7 7 7 8 8 10 10 11 10 10 10 9
12 11 9 8 7 6 8 9 9 10 9 8 7 6 8 6 6 7 7 5 3 4 5 3 5 5 4 4 4 5 4 4 4 4 5 6 6 6 6 7 6 6 6 6 6 7 7 7 7 8 7 7 7 6 10 9 9 17 22 17 11 9 8
12 12 11 10 9 9 11 11 10 9 9 8 7 8 6 7 8 7 6 4 4 5 3 4 6 3 4 3 6 5 4 3 4 4 5 5 6 6 6 6 6 4 5 6 7 7 7 7 8 8 10 10 9 9 10 10 12 21 19 20 21 13 9
12 11 11 11 10 11 12 10 10 9 8 7 7 7 7 8 7 5 5 7 4 3 3 4 4 3 4 4 5 3 4 4 3 4 4 5 5 4 5 4 5 6 5 5 5 5 4 5 5 5 6 6 7 9 9 10 15 16 20 20 20 19 11
11 11 12 12 12 11 12 11 10 9 8 7 6 9 10 8 5 5 7 4 3 4 2 3 4 4 4 4 4 4 4 2 3 3 3 4 4 4 4 4 4 5 5 6 6 4 4 4 4 4 4 6 7 7 9 9 13 16 19 19 20 20 16
12 12 11 12 11 11 11 9 8 10 10 10 10 9 6 5 7 5 3 4 5 4 6 5 4 4 3 4 4 4 5 4 2 2 3 4 4 3 4 3 4 4 4 4 3 3 3 5 4 4 5 6 6 5 7 8 11 14 15 16 19 20 17
11 11 12 13 13 12 10 9 9 10 10 9 9 8 5 5 7 5 4 3 5 4 4 4 3 4 4 3 4 4 4 4 3 4 3 4 3 3 2 4 3 4 3 3 4 4 4 4 5 5 5 5 6 6 6 5 9 11 11 11 14 16 16
12 13 13 11 12 10 11 10 10 11 10 8 9 6 5 5 3 6 5 3 4 3 3 3 3 4 4 3 4 5 7 5 4 4 5 3 2 3 3 4 3 4 5 4 3 4 4 5 5 6 5 5 5 6 4 4 9 9 9 10 13 15 10
12 13 13 13 12 11 12 12 11 10 10 9 7 6 5 6 4 4 4 3 3 2 2 4 5 4 4 5 5 5 6 6 5 4 3 4 6 6 6 5 5 5 3 3 4 4 4 4 4 4 4 5 5 5 4 5 6 7 8 9 12 11 7
13 14 14 13 13 13 13 12 11 10 9 9 7 6 4 4 5 4 3 2 3 3 4 5 5 4 4 5 5 4 6 5 4 4 4 5 4 4 4 3 3 3 3 2 3 4 4 4 3 3 3 4 4 5 5 4 4 6 7 8 10 11 8
13 14 14 13 13 13 12 12 12 11 10 9 7 2 4 6 5 4 2 3 4 5 5 5 5 4 6 5 4 4 3 3 3 4 4 4 3 4 4 3 3 3 3 4 2 3 3 4 3 4 3 3 3 8 6 3 3 5 4 6 8 8 6
14 13 13 13 12 11 12 13 14 13 11 9 7 6 5 4 4 3 4 6 6 3 6 5 4 4 5 3 3 4 6 6 7 4 3 4 3 3 1 2 3 4 3 3 3 4 2 3 3 2 3 3 3 3 3 3 2 3 0 3 5 8 7
13 12 12 14 11 11 12 10 8 11 11 7 5 5 5 3 3 5 6 6 4 5 5 4 3 4 3 3 4 5 5 5 4 4 5 5 4 4 4 3 3 2 3 2 2 1 1 1 2 2 2 3 3 3 3 2 2 3 2 1 2 5 7
13 15 12 9 8 9 11 12 12 11 9 8 5 5 4 4 3 7 6 4 5 5 4 3 3 2 3 4 4 4 4 4 5 5 4 4 5 3 3 2 1 2 2 2 2 1 2 2 1 1 3 3 4 4 3 4 2 1 5 4 3 3 6
12 11 10 9 9 7 8 8 9 7 8 8 6 5 4 3 6 7 6 5 4 4 3 3 2 3 4 5 4 3 3 4 3 4 4 2 1 2 2 2 3 3 3 2 2 4 3 3 2 3 3 3 2 3 2 2 2 4 1 7 5 5 5
10 10 9 10 10 10 10 10 10 9 8 7 5 4 6 8 6 4 5 4 3 3 2 3 5 3 4 3 2 1 2 2 3 3 2 3 3 2 2 3 3 2 3 2 2 3 3 2 4 1 2 3 3 2 3 3 1 1 4 0 7 6 8
10 10 10 11 11 9 9 8 7 6 7 7 6 4 4 5 4 4 3 2 3 3 2 2 3 5 3 3 1 1 3 3 1 1 3 1 1 2 2 3 3 3 1 3 2 3 3 4 2 2 1 1 3 4 4 3 3 2 0 6 2 8 8
12 11 10 10 8 8 10 8 6 7 7 6 7 6 4 3 3 3 2 3 4 4 3 2 3 3 3 3 2 2 2 2 3 3 3 2 3 3 2 3 1 1 2 1 2 2 3 3 3 3 3 1 2 3 4 3 2 2 2 3 7 5 3
9 9 10 7 8 9 6 6 8 8 7 6 4 6 6 4 3 1 2 3 6 6 3 1 5 1 4 1 1 3 2 3 2 1 3 4 3 3 4 3 4 2 2 3 1 3 3 3 4 4 4 3 2 3 3 4 1 1 2 3 4 4 6
11 9 6 7 7 4 5 7 6 9 7 5 5 4 3 4 2 2 3 4 5 4 3 1 2 5 3 4 3 4 2 1 5 3 0 2 4 4 3 2 4 2 0 0 3 3 3 4 4 4 5 4 3 3 4 4 3 3 3 3 4 3 4
10 8 7 7 7 5 5 7 5 5 6 5 5 3 1 4 2 0 1 3 4 2 2 4 8 0 3 1 3 4 2 2 2 2 1 1 2 3 3 3 3 3 3 3 0 1 3 3 5 5 4 4 5 5 5 5 3 3 2 3 3 1 3
7 8 8 7 6 5 3 3 3 6 6 5 2 3 1 1 2 1 1 3 4 1 3 3 3 4 3 4 2 3 4 2 2 2 3 3 3 3 4 5 4 3 3 5 4 6 6 5 5 5 4 4 4 4 4 4 2 6 7 6 4 3 4
9 8 7 8 7 6 5 4 5 6 3 2 1 2 1 1 3 1 4 2 3 2 3 1 4 5 5 3 3 5 3 4 4 3 0 2 4 4 5 3 5 9 9 8 7 5 10 10 12 12 11 6 6 5 4 3 6 7 7 6 5 4 6
8 6 7 7 7 5 6 3 5 5 3 2 2 3 1 2 1 3 2 2 1 1 2 1 1 4 5 6 3 4 2 2 3 5 5 3 2 3 4 4 6 4 9 12 11 12 12 12 12 13 12 9 7 5 6 3 5 6 6 6 5 7 8
Wind_Direction
142 145 140 143 93 106 138 146 158 206 142 130 124 117 108 99 93 94 95 89 83 78 67 60 49 42 43 40 35 25 20 17 351 355 3 19 17 343 8 11 345 359 344 7 356 2 351 21 15 11 353 9 20 16 22 9 12 9 12 353 1 1 343
130 150 138 101 105 131 146 150 161 227 128 114 114 117 104 99 103 95 85 82 77 67 63 55 50 44 31 35 41 23 18 23 3 5 13 6 4 339 28 4 352 7 341 17 341 2 12 19 14 1 351 6 28 29 20 15 12 5 11 352 7 356 340
109 137 121 92 136 142 146 150 178 170 133 138 130 114 103 98 94 96 88 78 68 63 61 51 46 42 31 27 39 26 21 29 13 11 16 3 1 342 18 13 11 4 341 359 9 22 10 359 15 348 13 12 20 29 22 14 13 4 5 352 0 354 345
105 87 67 113 132 145 143 165 200 163 152 136 105 102 102 103 101 78 76 75 73 71 69 67 56 45 42 27 42 27 20 31 19 13 13 358 357 343 352 35 20 5 341 23 25 20 13 359 6 355 26 15 21 25 26 15 11 4 7 350 4 352 345
87 72 85 146 141 145 153 169 225 156 145 117 108 106 102 98 90 87 79 78 99 103 101 87 72 65 41 44 35 34 32 30 17 9 12 353 357 341 326 34 31 7 342 36 20 22 18 16 10 7 10 27 16 17 23 14 15 356 16 357 1 352 343
70 149 203 176 150 143 137 145 100 105 104 117 118 106 95 91 91 98 103 117 126 148 109 84 65 51 36 29 30 35 38 47 21 3 358 5 357 358 344 33 27 13 11 32 14 18 24 29 24 14 4 18 18 18 25 15 8 3 0 2 357 346 335
152 175 170 150 143 128 122 111 100 103 104 96 91 94 85 73 70 79 139 136 130 109 60 77 67 49 25 18 51 22 40 50 43 2 351 14 12 7 351 35 19 19 22 22 18 3 26 21 28 23 2 14 23 26 24 16 6 1 356 355 2 346 330
163 161 140 140 119 108 114 117 102 101 100 105 104 73 64 78 89 92 79 71 39 59 63 65 53 63 11 8 348 53 29 18 37 357 18 19 31 12 358 14 19 19 18 19 10 14 24 26 24 20 4 12 31 29 28 17 22 11 6 1 356 348 348
141 151 140 131 115 110 114 115 110 108 103 94 87 92 94 97 101 112 80 74 62 53 62 52 50 52 50 16 18 31 359 49 31 13 21 21 18 17 6 9 6 23 23 20 7 15 23 24 17 9 17 3 35 43 29 29 25 13 5 357 354 345 346
124 112 99 111 113 118 116 111 109 104 92 80 72 83 84 55 98 92 341 249 123 148 91 55 56 39 22 15 34 28 23 15 27 34 22 25 21 16 14 8 8 18 29 25 13 13 29 9 353 352 45 14 26 39 27 34 25 13 3 356 348 347 338
116 108 115 117 127 125 123 107 95 88 84 76 94 76 79 81 87 75 53 48 36 44 33 47 40 21 7 23 59 26 44 36 37 32 29 20 26 17 13 17 18 11 20 15 17 11 16 8 351 334 53 22 41 43 38 32 20 8 358 353 350 342 338
122 123 127 131 128 126 110 90 78 81 84 70 72 115 126 126 115 51 31 52 52 40 33 31 44 27 12 3 48 32 46 56 50 40 30 25 22 16 14 15 20 18 22 13 14 17 14 10 333 345 40 21 49 50 43 34 19 6 356 350 348 342 333
129 126 133 140 131 109 91 79 78 77 66 100 134 94 92 94 68 60 47 51 52 48 37 21 24 19 40 346 47 37 30 29 46 45 36 32 30 16 12 23 30 20 23 17 21 14 11 2 339 14 18 37 60 54 45 34 19 6 359 351 346 342 329
123 125 127 129 121 107 101 130 143 145 154 101 137 125 103 95 93 80 65 59 53 44 28 44 360 332 59 47 49 41 23 33 45 41 43 42 33 22 17 25 36 30 23 29 23 20 17 13 354 15 20 64 69 63 50 34 20 8 5 353 350 345 337
129 132 136 122 119 112 123 123 129 137 131 133 129 122 114 88 80 85 77 65 50 45 30 10 32 23 25 27 27 59 37 40 30 46 43 45 39 29 19 22 34 48 31 32 31 25 28 14 9 10 11 37 70 78 58 35 20 12 8 0 355 349 338
137 134 133 133 136 133 125 122 124 123 113 118 138 135 105 102 85 74 75 66 29 59 34 352 52 26 35 19 29 38 35 26 56 57 50 50 44 39 27 10 16 39 28 25 20 19 36 26 15 357 13 5 12 37 64 34 23 16 8 6 2 349 340
139 134 130 132 131 126 120 120 121 123 112 116 113 107 108 86 81 75 76 70 35 41 47 350 71 45 25 23 53 41 17 15 43 50 47 53 56 50 33 13 359 25 54 41 29 17 23 27 23 14 11 8 6 29 58 34 23 18 6 4 359 357 338
140 131 128 128 129 127 121 122 113 116 115 121 123 114 96 86 79 86 64 58 51 4 44 26 49 38 41 17 81 53 47 12 34 51 46 49 62 51 51 38 7 4 30 52 47 26 18 44 26 30 9 354 13 51 45 39 19 16 7 2 357 353 343
136 132 126 126 126 122 120 120 125 129 139 142 95 81 88 95 99 60 68 82 37 56 42 63 34 37 31 14 11 44 80 5 21 49 59 70 54 31 56 32 26 24 10 43 50 19 358 45 34 33 10 14 7 41 51 41 19 22 5 3 355 347 343
130 126 129 125 122 120 113 114 125 127 117 99 93 92 96 104 88 94 65 52 70 18 31 40 41 28 17 34 15 13 85 46 4 20 54 50 61 50 51 17 49 26 29 29 35 23 358 34 25 38 40 17 14 48 67 43 28 31 5 359 356 347 342
128 128 125 122 121 123 120 126 132 112 100 96 101 104 91 76 101 84 78 64 66 48 38 47 26 49 343 35 41 6 38 69 38 340 53 62 50 61 42 37 30 19 45 21 24 359 347 44 17 43 43 23 19 8 76 46 39 39 17 355 348 345 339
129 128 127 125 120 120 130 120 99 96 96 94 90 91 91 85 74 96 82 71 73 57 45 22 40 47 350 29 43 41 43 19 31 5 348 30 39 21 22 49 29 21 13 22 40 4 3 19 29 27 19 30 17 9 54 69 46 41 27 0 349 348 345
125 116 119 123 124 122 104 100 99 95 93 92 94 99 91 80 73 71 71 41 91 111 66 43 50 40 10 11 12 45 48 27 14 26 11 5 2 24 25 17 8 29 360 8 13 13 24 9 20 30 20 14 12 15 354 76 48 44 31 15 356 349 355
117 121 117 120 116 104 99 98 102 101 104 107 96 88 113 186 109 83 62 56 54 38 55 56 39 24 19 25 8 10 53 35 24 19 30 26 19 18 24 29 17 28 326 4 12 6 13 14 20 10 28 19 17 352 13 67 58 53 36 24 3 347 353
123 119 121 122 122 122 117 117 112 112 108 106 112 129 65 60 59 59 74 27 47 56 46 40 56 14 42 36 11 7 48 57 67 56 38 55 42 34 44 20 29 355 349 343 31 48 3 4 21 350 11 30 41 355 28 11 104 77 49 20 6 355 341
118 121 123 115 108 122 128 116 126 129 121 115 116 117 106 69 67 83 57 46 56 40 44 29 20 46 79 56 358 19 28 17 12 16 49 52 42 100 91 127 56 16 1 356 357 49 347 9 352 336 6 13 358 37 28 6 12 111 87 53 11 345 343
131 135 122 114 119 120 131 145 118 91 100 108 108 85 76 71 68 53 67 60 50 42 48 41 18 41 53 40 29 41 14 11 358 18 33 41 23 1 12 35 69 60 26 360 341 50 285 320 276 20 23 10 4 39 14 8 359 137 177 132 34 333 345
107 94 97 116 133 108 104 99 102 102 117 122 119 99 88 94 66 77 73 67 52 35 71 45 48 40 74 67 46 36 11 36 0 334 38 41 19 353 1 13 21 23 102 338 323 18 305 334 327 82 36 22 22 346 15 340 6 229 180 186 176 292 323
102 102 105 107 89 93 106 112 123 124 99 91 72 61 85 72 66 78 75 82 60 63 33 70 72 50 74 76 56 18 38 33 336 323 18 30 123 357 18 332 354 17 10 5 346 329 342 326 327 59 301 82 315 357 343 4 34 332 334 181 190 213 258
102 116 122 108 106 100 93 85 74 73 81 82 85 73 42 50 62 68 79 75 107 97 19 335 81 65 63 75 69 42 4 66 324 23 342 12 348 74 331 318 67 9 356 323 329 329 304 13 321 28 319 8 334 334 336 349 341 179 308 332 192 217 228
119 110 98 92 91 99 101 98 108 121 118 109 84 70 67 60 64 67 79 132 122 101 61 339 18 75 75 91 85 12 56 332 236 64 332 9 319 289 313 332 45 344 83 308 332 306 325 323 273 343 346 353 338 343 341 343 316 25 62 7 62 210 235
95 95 106 109 103 102 119 130 116 85 101 120 132 119 88 75 64 65 66 284 87 93 82 4 326 101 81 109 107 343 84 242 350 78 307 323 282 284 194 239 136 202 287 325 334 314 318 298 315 316 323 8 314 314 317 304 327 11 22 24 10 10 298
110 94 91 106 145 156 123 108 135 132 101 82 47 69 91 108 83 355 285 342 101 97 88 353 315 13 127 110 173 143 225 158 303 263 185 267 245 247 277 243 160 182 308 314 347 313 308 308 331 330 329 348 267 265 284 311 298 83 50 46 13 17 352
102 104 100 84 57 58 90 112 92 87 80 71 81 80 56 80 76 48 15 38 48 36 55 350 42 13 26 33 331 130 282 36 184 242 292 313 315 329 290 325 334 328 15 255 294 316 319 318 320 317 315 320 333 348 340 320 9 88 39 41 31 360 344
110 111 119 95 74 64 49 71 99 125 102 94 66 68 87 71 79 334 178 77 65 17 16 340 322 79 353 96 278 113 178 263 344 295 70 59 296 314 358 353 291 299 316 278 177 258 304 315 290 296 302 325 336 331 319 335 2 87 75 97 104 25 336
126 130 125 123 119 87 82 116 109 110 110 99 86 72 42 85 112 303 123 93 85 63 45 349 332 338 298 1 353 70 336 42 289 327 18 326 322 298 266 203 214 212 238 285 254 203 199 213 240 250 280 296 290 292 316 338 35 137 134 144 154 223 241
134 132 132 129 131 144 132 82 112 102 96 101 116 77 63 214 121 334 83 32 79 19 86 24 313 327 21 322 323 81 4 329 332 12 164 280 292 309 320 310 221 220 220 228 253 227 232 233 237 255 263 260 276 286 330 9 136 155 167 164 190 215 247
130 130 138 145 130 152 134 174 103 92 82 121 137 126 315 15 177 154 127 131 159 129 174 8 265 262 261 266 346 60 15 286 301 295 282 201 215 270 280 267 281 256 227 229 232 246 242 235 242 246 251 259 261 283 286 281 156 169 171 187 203 236 252